Upgrade to Hard Mode — (Run) Batman: Arkham City
Total: $18,868.92
Goal: $25,000.00

Description
Upgrade the difficulty of the Batman: Arkham City run to Hard Mode.
NameAscDsc Time ReceivedAscDsc AmountAscDsc
Maddy Rome 2024-01-14T23:45:56.681517-05:00 $50.00
(Anonymous) 2024-01-14T23:45:04.562626-05:00 $13.37
Iced 2024-01-14T23:44:52.017038-05:00 $100.00
(Anonymous) 2024-01-14T23:44:50.141799-05:00 $25.00
DeathbyPie 2024-01-14T23:44:16.884915-05:00 $25.00
petsinwinter 2024-01-14T23:44:14.768850-05:00 $20.00
DesireeBLG 2024-01-14T23:44:11.667523-05:00 $25.00
Eric 2024-01-14T23:43:54.879311-05:00 $40.00
Orvandel 2024-01-14T23:43:38.554545-05:00 $20.00
Fastfrwrd 2024-01-14T23:42:51.398568-05:00 $5.00
(Anonymous) 2024-01-14T23:42:37.135531-05:00 $25.00
Eldrtch 2024-01-14T23:42:35.984719-05:00 $25.00
FlaminSarge 2024-01-14T23:41:39.965354-05:00 $25.00
Thurule 2024-01-14T23:40:13.745302-05:00 $50.00
Sladebane 2024-01-14T23:39:52.794417-05:00 $100.00
Rashan Dragoness 2024-01-14T23:39:44.209709-05:00 $25.00
Soardano_brohoofington 2024-01-14T23:39:43.162943-05:00 $5.00
Devilwoman86 2024-01-14T23:39:32.511654-05:00 $25.00
(Anonymous) 2024-01-14T23:38:46.788754-05:00 $25.00
DraconicDon 2024-01-14T23:38:45.134165-05:00 $25.00
Reythe 2024-01-14T23:38:19.972507-05:00 $5.00
Pete Zaparti 2024-01-14T23:38:12.662172-05:00 $25.00
kornchildrc12 2024-01-14T23:38:03.404536-05:00 $25.00
Myron 2024-01-14T23:37:54.657278-05:00 $25.00
(Anonymous) 2024-01-14T23:36:57.682568-05:00 $25.00
Sykes 2024-01-14T23:36:54.754949-05:00 $50.00
River Kwai 2024-01-14T23:36:11.965273-05:00 $10.00
Private Iron 2024-01-14T23:35:33.349261-05:00 $10.00
(Anonymous) 2024-01-14T23:35:28.795621-05:00 $10.00
evelyn 2024-01-14T23:35:20.962231-05:00 $10.00
Leanne 2024-01-14T23:35:19.369330-05:00 $5.00
(Anonymous) 2024-01-14T23:35:01.681110-05:00 $20.00
PikachuPhD 2024-01-14T23:34:43.588270-05:00 $25.00
MrCLFN 2024-01-14T23:34:15.354988-05:00 $5.00
Thrawn 2024-01-14T23:33:14.100715-05:00 $25.00
psyduck best duck 2024-01-14T23:32:20.839937-05:00 $25.00
(Anonymous) 2024-01-14T23:32:05.573346-05:00 $50.00
LemonLark 2024-01-14T23:31:51.527259-05:00 $25.00
Kineticka 2024-01-14T23:31:48.399189-05:00 $50.00
(Anonymous) 2024-01-14T23:31:32.094248-05:00 $25.00
(Anonymous) 2024-01-14T23:31:00.066655-05:00 $25.00
AgentOtter 2024-01-14T23:30:55.623790-05:00 $100.00
(Anonymous) 2024-01-14T23:30:50.088397-05:00 $5.00
(Anonymous) 2024-01-14T23:30:36.227128-05:00 $10.00
Obee Wan Kenobie 2024-01-14T23:30:33.788885-05:00 $25.00
(Anonymous) 2024-01-14T23:30:21.131642-05:00 $50.00
(Anonymous) 2024-01-14T23:30:16.916898-05:00 $5.00
RuddyJes 2024-01-14T23:30:13.650658-05:00 $25.00
(Anonymous) 2024-01-14T23:30:10.797940-05:00 $25.00
konbanmiao 2024-01-14T23:30:08.488309-05:00 $50.00

|< >|

Back to Bid Index

Back to Main Index

Running on Django with Python
Python code by UraniumAnchor, SMK, and jdeng
CSS by Cool Matty